Centerville, IA

12:57 AM CST on December 15, 2017 (GMT -0600)
Centerville Municipal

Weather History for KTVK - November, 2013

Change the Weather History Date:

Wednesday, November 20, 2013

  Actual Average Record
Temperature  
Mean Temperature 38 °F -  
Max Temperature 41 °F 47 °F 67 °F (1990)
Min Temperature 35 °F 29 °F 6 °F (2014)
Degree Days  
Heating Degree Days 27    
Moisture  
Dew Point 33 °F    
Average Humidity 84    
Maximum Humidity 100    
Minimum Humidity 49    
Precipitation  
Precipitation 0.00 in - - ()
Sea Level Pressure  
Sea Level Pressure 30.01 in    
Wind  
Wind Speed 11 mph (SE)    
Max Wind Speed 18 mph    
Max Gust Speed 25 mph    
Visibility 10 miles    
Events Rain , Snow    
Averages and records for this station are not official NWS values.
T = Trace of Precipitation, MM = Missing Value Source: NWS Daily Summary

Daily Weather History Graph

Daily Weather History Graph

Search for Another Location

Airport or City:

Trip Planner

Search our weather history database for the weather conditions in past years. The results will help you decide how hot, cold, wet, or windy it might be!

Date:

Astronomy

Nov. 20, 2013 Rise Set
Actual Time 7:04 AM CST 4:49 PM CST
Civil Twilight 6:34 AM CST 5:19 PM CST
Nautical Twilight 6:01 AM CST 5:52 PM CST
Astronomical Twilight 5:28 AM CST 6:25 PM CST
Moon 7:33 PM CST (11/20) 9:30 AM CST (11/20)
Length of Visible Light 10h 44m
Length of Day
9h 45m
Waning Gibbous, 91% of the Moon is Illuminated
Nov 20
Waning Gibbous
Nov 25
Last Quarter
Dec 2
New
Dec 9
First Quarter
Dec 17
Full

Hourly Weather History & Observations

Time (CST) Temp. Windchill Dew Point Humidity Pressure Visibility Wind Dir Wind Speed Gust Speed Precip Events Conditions
12:15 AM 41.0 °F 34.7 °F 26.6 °F 57% 30.08 in 10.0 mi SE 10.4 mph - N/A   Scattered Clouds
12:35 AM 41.0 °F 33.9 °F 26.6 °F 57% 30.07 in 10.0 mi SE 12.7 mph - N/A   Partly Cloudy
12:55 AM 41.0 °F 34.7 °F 26.6 °F 57% 30.07 in 10.0 mi SE 10.4 mph 16.1 mph N/A   Clear
1:15 AM 41.0 °F 34.3 °F 26.6 °F 57% 30.08 in 10.0 mi SE 11.5 mph - N/A   Partly Cloudy
1:35 AM 41.0 °F 33.9 °F 26.6 °F 57% 30.07 in 10.0 mi SE 12.7 mph - N/A   Partly Cloudy
1:55 AM 41.0 °F 33.9 °F 24.8 °F 53% 30.07 in 10.0 mi SE 12.7 mph - N/A   Partly Cloudy
2:15 AM 41.0 °F 33.9 °F 24.8 °F 53% 30.07 in 10.0 mi SSE 12.7 mph - N/A   Mostly Cloudy
2:35 AM 41.0 °F 33.9 °F 24.8 °F 53% 30.07 in 10.0 mi SE 12.7 mph 19.6 mph N/A   Mostly Cloudy
2:55 AM 41.0 °F 33.5 °F 23.0 °F 49% 30.06 in 10.0 mi SE 13.8 mph - N/A   Scattered Clouds
3:15 AM 41.0 °F 33.9 °F 23.0 °F 49% 30.05 in 10.0 mi ESE 12.7 mph 19.6 mph N/A   Mostly Cloudy
3:35 AM 41.0 °F 33.1 °F 24.8 °F 53% 30.03 in 10.0 mi ESE 15.0 mph - N/A Rain Light Rain
3:55 AM 39.2 °F 30.8 °F 24.8 °F 56% 30.03 in 10.0 mi SE 15.0 mph - N/A   Clear
4:15 AM 39.2 °F 30.5 °F 23.0 °F 52% 30.01 in 10.0 mi SE 16.1 mph - N/A   Clear
4:35 AM 39.2 °F 31.2 °F 24.8 °F 56% 30.01 in 10.0 mi SE 13.8 mph - N/A   Scattered Clouds
4:55 AM 41.0 °F 32.8 °F 24.8 °F 53% 30.01 in 10.0 mi SE 16.1 mph 21.9 mph N/A   Overcast
5:15 AM 41.0 °F 37.1 °F 24.8 °F 53% 30.03 in 10.0 mi SSE 5.8 mph - N/A   Overcast
5:35 AM 41.0 °F - 24.8 °F 53% 30.04 in 10.0 mi Calm Calm - N/A   Overcast
5:55 AM 41.0 °F 38.0 °F 24.8 °F 53% 30.05 in 10.0 mi SE 4.6 mph - N/A   Overcast
6:15 AM 39.2 °F 35.0 °F 28.4 °F 65% 30.05 in 10.0 mi ESE 5.8 mph - N/A Rain Light Rain
6:35 AM 37.4 °F 32.1 °F 28.4 °F 70% 30.07 in 10.0 mi SE 6.9 mph - N/A Rain Light Rain
6:55 AM 37.4 °F 29.3 °F 28.4 °F 70% 30.05 in 10.0 mi ESE 12.7 mph - N/A   Mostly Cloudy
7:15 AM 37.4 °F 29.8 °F 30.2 °F 75% 30.05 in 10.0 mi ESE 11.5 mph - N/A Rain Light Rain
7:35 AM 37.4 °F 29.8 °F 32.0 °F 81% 30.05 in 4.0 mi SE 11.5 mph - N/A Rain Light Rain
7:55 AM 37.4 °F 30.8 °F 32.0 °F 81% 30.06 in 5.0 mi SE 9.2 mph - N/A Rain Light Rain
8:15 AM 35.6 °F 27.5 °F 32.0 °F 87% 30.05 in - SE 11.5 mph - N/A   Unknown
8:35 AM 35.6 °F 26.2 °F 32.0 °F 87% 30.04 in - SE 15.0 mph 19.6 mph N/A   Overcast
8:55 AM 35.6 °F 25.9 °F 32.0 °F 87% 30.03 in 10.0 mi SE 16.1 mph 19.6 mph N/A   Overcast
9:15 AM 35.6 °F 25.9 °F 32.0 °F 87% 30.03 in - SE 16.1 mph 20.7 mph N/A   Overcast
9:35 AM 35.6 °F 25.5 °F 33.8 °F 93% 30.03 in - SSE 17.3 mph 24.2 mph N/A Snow Heavy Snow
9:55 AM 35.6 °F 26.6 °F 33.8 °F 93% 30.04 in 2.5 mi SSE 13.8 mph - N/A   Overcast
10:15 AM 35.6 °F 25.5 °F 35.6 °F 100% 30.03 in 7.0 mi SE 17.3 mph - N/A   Overcast
10:35 AM 35.6 °F 27.1 °F 35.6 °F 100% 30.04 in 8.0 mi SSE 12.7 mph 18.4 mph N/A Snow Light Snow
10:55 AM 35.6 °F 26.2 °F 35.6 °F 100% 30.02 in 10.0 mi SSE 15.0 mph - N/A Rain Light Rain
11:15 AM 35.6 °F 27.1 °F 35.6 °F 100% 30.02 in 8.0 mi SSE 12.7 mph - N/A Snow Light Snow
11:35 AM 35.6 °F 26.6 °F 35.6 °F 100% 30.01 in 10.0 mi SSE 13.8 mph - N/A   Mostly Cloudy
11:55 AM 35.6 °F 25.9 °F 35.6 °F 100% 30.00 in 10.0 mi SSE 16.1 mph 20.7 mph N/A Rain Light Rain
12:15 PM 37.4 °F 27.5 °F 37.4 °F 100% 29.98 in 10.0 mi SSE 18.4 mph - N/A   Mostly Cloudy
12:35 PM 37.4 °F 27.8 °F 37.4 °F 100% 29.96 in 6.0 mi SE 17.3 mph 25.3 mph N/A Snow Light Snow
12:55 PM 37.4 °F 28.5 °F 37.4 °F 100% 29.96 in 10.0 mi SE 15.0 mph - N/A   Overcast
1:15 PM 37.4 °F 28.9 °F 37.4 °F 100% 29.95 in 10.0 mi SE 13.8 mph - N/A   Overcast
1:35 PM 37.4 °F 29.3 °F 37.4 °F 100% 29.94 in 10.0 mi SE 12.7 mph - N/A Rain Light Rain
1:55 PM 37.4 °F 30.3 °F 37.4 °F 100% 29.94 in 10.0 mi SE 10.4 mph - N/A   Overcast
2:15 PM 37.4 °F 32.1 °F 37.4 °F 100% 29.94 in 10.0 mi SE 6.9 mph - N/A   Overcast
2:35 PM 37.4 °F 30.3 °F 37.4 °F 100% 29.94 in 7.0 mi SE 10.4 mph - N/A Rain Light Rain
2:55 PM 37.4 °F 30.3 °F 37.4 °F 100% 29.93 in 10.0 mi SE 10.4 mph - N/A   Overcast
3:15 PM 39.2 °F 32.0 °F 39.2 °F 100% 29.93 in 10.0 mi SE 11.5 mph - N/A   Mostly Cloudy
3:35 PM 39.2 °F 32.0 °F 39.2 °F 100% 29.93 in 10.0 mi SE 11.5 mph - N/A   Scattered Clouds
3:55 PM 39.2 °F 32.0 °F 39.2 °F 100% 29.92 in 10.0 mi SE 11.5 mph - N/A   Scattered Clouds
4:15 PM 39.2 °F 33.0 °F 39.2 °F 100% 29.93 in 10.0 mi SE 9.2 mph - N/A   Partly Cloudy
4:35 PM 39.2 °F 34.2 °F 39.2 °F 100% 29.93 in 10.0 mi SE 6.9 mph - N/A   Mostly Cloudy
4:55 PM 39.2 °F 33.6 °F 39.2 °F 100% 29.95 in 10.0 mi SSE 8.1 mph - N/A   Overcast
5:15 PM 39.2 °F 33.0 °F 39.2 °F 100% 29.95 in 10.0 mi SE 9.2 mph - N/A   Overcast
5:35 PM 39.2 °F 33.6 °F 37.4 °F 93% 29.96 in 10.0 mi SE 8.1 mph - N/A   Overcast
5:55 PM 39.2 °F 33.6 °F 37.4 °F 93% 29.97 in 10.0 mi SSE 8.1 mph - N/A   Overcast
6:15 PM 39.2 °F 33.6 °F 37.4 °F 93% 29.97 in 10.0 mi SE 8.1 mph - N/A   Overcast
6:35 PM 39.2 °F 35.0 °F 37.4 °F 93% 29.98 in 10.0 mi ESE 5.8 mph - N/A   Overcast
6:55 PM 39.2 °F 34.2 °F 39.2 °F 100% 29.97 in 10.0 mi SE 6.9 mph - N/A   Overcast
7:15 PM 39.2 °F 34.2 °F 39.2 °F 100% 29.98 in 10.0 mi SE 6.9 mph - N/A   Mostly Cloudy
7:35 PM 39.2 °F 32.5 °F 37.4 °F 93% 29.97 in 10.0 mi SE 10.4 mph - N/A   Mostly Cloudy
7:55 PM 39.2 °F 33.0 °F 37.4 °F 93% 29.99 in 10.0 mi SE 9.2 mph - N/A   Overcast
8:15 PM 39.2 °F 33.6 °F 37.4 °F 93% 29.98 in 10.0 mi SE 8.1 mph - N/A   Overcast
8:35 PM 39.2 °F 34.2 °F 37.4 °F 93% 29.99 in 10.0 mi SE 6.9 mph - N/A   Overcast
8:55 PM 39.2 °F 34.2 °F 37.4 °F 93% 30.00 in 10.0 mi SE 6.9 mph - N/A   Overcast
9:15 PM 39.2 °F 33.6 °F 37.4 °F 93% 30.00 in 10.0 mi SE 8.1 mph - N/A   Overcast
9:35 PM 39.2 °F 33.6 °F 37.4 °F 93% 30.00 in 10.0 mi SE 8.1 mph - N/A   Overcast
9:55 PM 39.2 °F 34.2 °F 37.4 °F 93% 30.00 in 10.0 mi SE 6.9 mph - N/A   Overcast
10:15 PM 39.2 °F 34.2 °F 37.4 °F 93% 30.00 in 10.0 mi SSE 6.9 mph - N/A   Mostly Cloudy
10:35 PM 39.2 °F 34.2 °F 39.2 °F 100% 30.00 in 10.0 mi SSE 6.9 mph - N/A   Mostly Cloudy
10:55 PM 39.2 °F 34.2 °F 39.2 °F 100% 30.01 in 10.0 mi SE 6.9 mph - N/A   Mostly Cloudy
11:15 PM 39.2 °F 35.0 °F 39.2 °F 100% 30.01 in 10.0 mi SE 5.8 mph - N/A   Scattered Clouds
11:35 PM 39.2 °F 35.0 °F 39.2 °F 100% 30.01 in 10.0 mi SE 5.8 mph - N/A   Mostly Cloudy
11:55 PM 39.2 °F - 39.2 °F 100% 30.01 in 10.0 mi Calm Calm - N/A   Overcast